EW0765 Weather Reports


Display with metric or nautical units.
time (UTC)temp
F
wind
direction
speed
MPH
gust
MPH
rain 1hr
in
rain 24hr
in
rain mn
in
humidity
%
barometer
mb
20260510050008 54 266 0.0 0.0 0.00 0.36 0.00 94 1008.0
20260510044506 54 265 0.0 0.0 0.00 0.36 0.00 94 1007.9
20260510043006 54 262 0.0 0.0 0.02 0.36 0.00 93 1006.9
20260510041508 55 262 0.0 0.0 0.04 0.36 0.00 93 1006.9
20260510040100 55 263 0.0 0.0 0.04 0.36 0.36 93 1006.8
20260510034559 55 263 0.0 0.0 0.04 0.36 0.36 93 1006.7
20260510033100 55 252 1.0 9.0 0.02 0.34 0.34 93 1007.2
20260510031627 55 271 0.0 0.0 0.01 0.32 0.32 93 1006.8
20260510030057 55 274 0.0 0.0 0.01 0.32 0.32 93 1006.9
20260510024558 55 274 0.0 0.0 0.01 0.32 0.32 93 1006.8
20260510023101 55 274 0.0 6.0 0.01 0.32 0.32 93 1006.7
20260510021556 55 242 0.0 3.0 0.00 0.31 0.31 94 1007.3
20260510020056 55 282 0.0 0.0 0.00 0.32 0.31 93 1006.5
20260510014555 55 283 0.0 0.0 0.00 0.32 0.31 93 1006.3
20260510013054 55 282 0.0 0.0 0.00 0.32 0.31 92 1006.2
20260510011609 56 283 0.0 0.0 0.00 0.32 0.31 92 1006.2
20260510010106 56 283 0.0 0.0 0.00 0.35 0.31 92 1006.1
20260510004554 56 283 0.0 0.0 0.00 0.35 0.31 92 1005.9
20260510003058 57 283 0.0 0.0 0.00 0.35 0.31 92 1006.0
20260510001553 57 284 0.0 0.0 0.01 0.35 0.31 92 1006.0
20260510000052 57 284 0.0 0.0 0.10 0.40 0.31 92 1006.0
20260509234556 57 266 0.0 0.0 0.26 0.40 0.31 92 1005.8
20260509233057 57 265 0.0 0.0 0.31 0.40 0.31 92 1005.9
20260509231559 56 259 0.0 9.0 0.30 0.39 0.30 91 1006.0
20260509230053 57 253 2.0 13.0 0.20 0.34 0.20 89 1006.4
20260509224549 62 309 5.0 18.0 0.04 0.18 0.04 77 1005.6
20260509223050 69 259 0.0 11.0 0.00 0.14 0.00 54 1003.6
20260509221548 69 248 0.0 4.0 0.00 0.14 0.00 54 1003.0
20260509220048 70 216 0.0 6.0 0.00 0.16 0.00 55 1003.4
20260509214547 71 194 0.0 8.0 0.00 0.16 0.00 53 1003.1
20260509213100 71 178 0.0 6.0 0.00 0.16 0.00 54 1003.1
20260509211610 71 279 0.0 12.0 0.00 0.16 0.00 57 1003.0
20260509210043 71 218 2.0 9.0 0.00 0.16 0.00 57 1003.3
20260509204556 71 253 2.0 9.0 0.00 0.16 0.00 56 1003.6
20260509203046 71 170 0.0 6.0 0.00 0.16 0.00 56 1003.9
20260509201537 71 175 2.0 10.0 0.00 0.16 0.00 56 1004.1
20260509200035 70 323 1.0 11.0 0.00 0.16 0.00 56 1004.4
20260509194533 70 200 0.0 9.0 0.00 0.16 0.00 58 1004.5
20260509193031 70 221 2.0 12.0 0.00 0.16 0.00 60 1004.7
20260509191529 69 180 0.0 7.0 0.00 0.16 0.00 62 1004.9
20260509190027 69 290 0.0 10.0 0.00 0.16 0.00 62 1005.4
20260509184525 68 314 2.0 9.0 0.00 0.16 0.00 63 1005.5
20260509183023 67 221 0.0 9.0 0.00 0.16 0.00 65 1005.5
20260509181521 67 259 0.0 10.0 0.00 0.16 0.00 62 1005.5
20260509180020 68 232 1.0 12.0 0.00 0.16 0.00 64 1005.5
20260509174518 67 229 2.0 11.0 0.00 0.16 0.00 64 1005.5
20260509173017 67 284 2.0 5.0 0.00 0.16 0.00 63 1005.9
20260509171514 66 241 0.0 5.0 0.00 0.16 0.00 66 1005.8
20260509170012 65 226 0.0 5.0 0.00 0.16 0.00 68 1005.8
20260509164510 65 209 0.0 4.0 0.00 0.16 0.00 69 1005.8
20260509163006 64 296 0.0 6.0 0.00 0.16 0.00 73 1005.8
20260509161505 63 253 0.0 6.0 0.00 0.16 0.00 71 1006.1
20260509154557 61 215 1.0 7.0 0.00 0.16 0.00 78 1006.5
20260509153056 60 292 1.0 8.0 0.00 0.16 0.00 78 1006.6
20260509151555 61 248 0.0 4.0 0.00 0.16 0.00 79 1006.4
20260509150051 59 212 0.0 7.0 0.00 0.16 0.00 83 1006.4
20260509144549 59 302 0.0 9.0 0.00 0.16 0.00 85 1006.5
20260509143050 57 182 0.0 2.0 0.00 0.16 0.00 89 1006.5
20260509141545 57 244 0.0 8.0 0.00 0.16 0.00 89 1006.4
20260509140046 56 282 0.0 4.0 0.00 0.16 0.00 90 1006.7
20260509134549 56 230 0.0 7.0 0.00 0.16 0.00 91 1006.5
20260509133048 56 309 0.0 3.0 0.00 0.16 0.00 92 1006.7
20260509131537 56 281 1.0 6.0 0.00 0.16 0.00 94 1006.7
20260509130033 55 288 0.0 2.0 0.00 0.16 0.00 94 1006.6
20260509124532 54 22 0.0 0.0 0.00 0.16 0.00 95 1006.8
20260509123032 54 329 0.0 2.0 0.00 0.16 0.00 95 1006.9
20260509121537 54 299 0.0 0.0 0.00 0.16 0.00 95 1007.1
20260509120033 54 290 0.0 0.0 0.00 0.16 0.00 95 1007.1
20260509114528 53 272 0.0 0.0 0.00 0.16 0.00 95 1007.0
20260509113026 53 360 0.0 0.0 0.00 0.16 0.00 95 1007.1
20260509111526 53 360 0.0 0.0 0.00 0.16 0.00 95 1007.0
20260509110025 53 355 0.0 0.0 0.00 0.16 0.00 95 1006.9
20260509104525 53 275 0.0 0.0 0.00 0.16 0.00 95 1006.7
20260509103024 53 275 0.0 0.0 0.00 0.16 0.00 95 1006.7
20260509101523 53 275 0.0 0.0 0.00 0.16 0.00 95 1006.8
20260509100022 53 275 0.0 0.0 0.00 0.16 0.00 95 1006.8
20260509094521 52 275 0.0 0.0 0.00 0.16 0.00 95 1006.8
20260509093020 52 275 0.0 0.0 0.00 0.16 0.00 95 1007.0
20260509091527 52 275 0.0 0.0 0.00 0.16 0.00 95 1007.0
20260509090017 52 275 0.0 0.0 0.00 0.16 0.00 95 1007.2
20260509084521 52 275 0.0 0.0 0.00 0.16 0.00 95 1007.3
20260509083015 52 275 0.0 0.0 0.00 0.16 0.00 95 1007.4
20260509081515 52 275 0.0 0.0 0.00 0.16 0.00 94 1007.6
20260509080023 52 275 0.0 0.0 0.00 0.16 0.00 94 1007.6
20260509074513 52 275 0.0 0.0 0.00 0.16 0.00 94 1007.5
20260509073030 52 275 0.0 0.0 0.00 0.16 0.00 94 1007.7
20260509071511 52 277 0.0 2.0 0.00 0.16 0.00 94 1007.6
20260509070009 52 241 0.0 0.0 0.00 0.16 0.00 94 1007.7
20260509064509 52 348 0.0 0.0 0.00 0.16 0.00 94 1007.8
20260509063006 52 273 0.0 0.0 0.00 0.16 0.00 94 1008.0
20260509061505 52 281 0.0 1.0 0.00 0.16 0.00 94 1008.1
20260509060010 52 268 0.0 0.0 0.00 0.16 0.00 94 1008.4
20260509054502 52 261 0.0 0.0 0.00 0.16 0.00 94 1008.5
20260509053005 52 54 0.0 0.0 0.00 0.16 0.00 94 1008.6
20260509051605 52 51 0.0 0.0 0.00 0.16 0.00 94 1008.6
20260509051501 52 51 0.0 0.0 0.00 0.16 0.00 94 1008.6
20260509050059 52 260 0.0 0.0 0.00 0.16 0.00 94 1008.6